Location: Itaú
(19.9462°S, 44.0195°W)
Time: 17:56:17
(UTC+00:00)

Daily predictions for brighter satellites

Satellite Brightness Start Highest point End
(mag) Time Altitude Azimuth Time Altitude Azimuth Time Altitude Azimuth
ATLAS 2A CENTAUR R/B 2.9 20:39:22 10° SW 20:42:02 35° SSE 20:49:17 10° E
ATLAS 3B R/B 3.3 20:44:59 10° NNW 20:52:35 68° WSW 21:00:01 10° SSE
SMAP 3.1 20:48:56 10° SSE 20:53:36 62° E 20:58:12 10° N
Meteor 2-9 Rocket 4.1 20:48:36 10° N 20:53:55 84° E 20:59:26 10° S
Okean 3 4.0 20:50:43 10° SSE 20:54:44 39° E 20:58:44 10° NNE
Cosmos 1241 Rocket 4.4 20:51:14 10° SSW 20:57:29 65° ESE 21:03:36 10° NNE
Delta 2 Rocket 4.3 20:54:50 10° WSW 20:58:24 41° NW 21:01:40 10° NE
Cosmos 1844 3.9 20:55:29 10° N 21:00:55 53° ENE 21:06:21 10° SSE
USA 281 4.5 20:59:09 10° ESE 21:03:44 20° ENE 21:08:18 10° NNE
ASTRO E2 3.4 21:02:33 10° SW 21:06:13 35° SSE 21:09:20 13° E
Meteor 2-14 Rocket 4.4 21:00:37 10° N 21:06:45 82° E 21:12:56 10° S
ATLAS CENTAUR R/B 3.8 21:07:27 10° WNW 21:09:51 16° WSW 21:12:12 10° SSW
Nadezhda 4 Rocket 4.2 21:06:08 10° N 21:12:18 80° W 21:18:36 10° S
USA 276 3.3 21:10:33 10° SW 21:13:21 42° NW 21:16:08 10° NNE
Landsat 5 3.4 21:09:55 10° NNE 21:13:50 52° ESE 21:17:41 10° S
CORIOLIS 4.2 21:12:10 10° SSE 21:17:39 86° WSW 21:23:02 10° NNW
GPS 2-15 Rocket1 4.0 21:13:23 10° NW 21:18:01 43° NNE 21:21:51 15° E
EXPRESS MD2 4.5 21:17:22 10° WNW 21:19:47 22° SW 21:21:41 10° S
Meteor 1-23 Rocket 4.4 21:14:03 10° S 21:19:56 83° W 21:25:44 10° N
NOAA 6 4.0 21:16:06 10° SSE 21:21:18 85° ENE 21:26:28 10° NNW
SWIFT 2.9 21:17:54 10° W 21:22:03 55° NNW 21:25:54 12° ENE
Cosmos 2242 Rocket 3.6 21:22:30 10° S 21:27:06 88° W 21:31:35 10° N
Cosmos 2026 Rocket 4.0 21:23:28 10° N 21:29:43 63° E 21:35:55 10° SSE
Meteor 1-4 Rocket 2.6 21:26:46 10° N 21:30:20 54° E 21:32:50 18° SSE
FUSE 4.3 21:27:04 10° WSW 21:32:14 49° S 21:35:07 25° ESE
USA 267 3.8 21:26:30 10° NNE 21:32:56 63° NW 21:39:27 10° SW
SeaSat 1 4.4 21:28:50 10° S 21:32:57 27° WSW 21:37:03 10° WNW
Cosmos 1707 2.9 21:32:39 10° S 21:36:23 45° E 21:40:04 10° NNE
H-2A R/B 3.5 21:32:16 10° S 21:37:03 38° WSW 21:41:55 10° NW
Cosmos 2278 Rocket 4.2 21:37:44 10° ENE 21:37:55 10° ENE 21:37:55 10° ENE
Cosmos 1842 3.8 21:36:21 10° SSW 21:40:11 58° W 21:43:58 10° N
Cosmos 1733 3.4 21:41:51 10° NNE 21:45:29 47° E 21:45:58 44° ESE
Cosmos 1092 Rocket 4.2 21:40:24 10° N 21:46:38 75° W 21:53:00 10° S
ASC 2 Rocket 3.3 21:44:56 10° W 21:49:12 65° S 21:51:06 37° ESE
CZ-4B DEB 4.2 21:45:49 10° SSE 21:51:20 87° WSW 21:56:49 10° NNW
Cosmos 405 Rocket 3.5 21:53:45 35° NE 21:53:45 35° NE 21:56:21 10° NNE
Cosmos 1607 4.2 21:47:29 10° S 21:53:32 43° ESE 21:59:29 10° NE
Cosmos 1733 Rocket 3.5 21:50:02 10° NNW 21:54:17 61° W 21:58:36 10° S
SL-08 RB Rocket 4.1 21:52:05 10° S 21:56:39 65° WSW 22:01:12 10° NNW
Cosmos 1943 3.3 21:52:43 10° SSW 21:58:27 80° WNW 22:04:07 10° NNE
YAOGAN 1 4.0 22:00:24 23° NE 22:00:24 23° NE 22:02:26 10° NNE
PAYLOAD B 4.1 21:56:18 18° SSE 22:00:29 83° ENE 22:05:58 10° N
Cosmos 1603 3.6 21:56:52 10° SSW 22:02:31 85° WNW 22:08:09 10° NNE
NOSS 3-1 (C) 4.5 21:56:38 10° NNW 22:05:53 76° WSW 22:12:47 19° SSE
YAOGAN 3 4.5 22:05:24 49° SSE 22:06:33 90° SSE 22:10:55 10° NNW
CZ-4B R/B 3.1 22:09:01 48° SE 22:10:28 68° ENE 22:15:57 10° N
Lacrosse 4 Rocket 4.4 22:10:47 10° WSW 22:13:44 18° WNW 22:16:38 10° NNW
NOSS 3-1 (A) 4.3 22:08:11 10° NNW 22:17:23 76° ENE 22:21:26 38° SE
CZ-4 R/B 3.8 22:22:02 14° N 22:22:02 14° N 22:22:42 10° N
IUS-1 SRM-2 3.4 22:14:29 10° WSW 22:17:37 34° WSW 22:17:37 34° WSW
Meteor 1-12 Rocket 4.1 22:13:50 10° N 22:19:26 68° E 22:19:40 68° ESE
CZ-4C R/B 3.6 22:22:24 10° NW 22:31:02 59° WSW 22:35:46 27° S
Okean O Rocket 3.2 22:43:17 30° NW 22:43:17 30° NW 22:45:33 10° NNW
Delta 2 Rocket 4.3 22:37:04 10° WSW 22:42:02 50° SSW 22:42:02 50° SSW
USA 281 3.9 22:45:26 31° SSW 22:48:11 48° WSW 22:54:24 10° NW
Centaur AC-102 3.9 22:49:36 10° WNW 22:53:41 51° NW 22:53:41 51° NW
Milstar 3 Cent rocket 4.4 22:32:03 10° WNW 22:58:35 73° SSW 23:02:34 56° SE
Cosmos 2278 Rocket 4.2 23:17:53 10° NNW 23:19:49 22° NW 23:19:49 22° NW
